This is the latest recevied weather packets stored in our database for station/object HB9HFD-13. If no packets are shown the sender has not sent any weather packets the latest 10 day(s).
| Time | Temp. | Humidity | Pressure | Rain* | Wind** | Luminosity | Snow |
|---|---|---|---|---|---|---|---|
| 1787487059 | 25° C | 45% | 1018.5 hPa | 0 mm | - | - | - |
| 1787486759 | 25° C | 48% | 1018.7 hPa | 0 mm | - | - | - |
| 1787486459 | 24.44° C | 47% | 1018.6 hPa | 0 mm | - | - | - |
| 1787486158 | 24.44° C | 47% | 1018.6 hPa | 0 mm | - | - | - |
| 1787485858 | 23.89° C | 48% | 1018.7 hPa | 0 mm | - | - | - |
| 1787485558 | 23.89° C | 49% | 1018.8 hPa | 0 mm | - | - | - |
| 1787485258 | 23.89° C | 50% | 1018.8 hPa | 0 mm | - | - | - |
| 1787484957 | 23.33° C | 50% | 1018.7 hPa | 0 mm | - | - | - |
| 1787484657 | 23.89° C | 49% | 1018.8 hPa | 0 mm | - | - | - |
| 1787484357 | 23.89° C | 51% | 1018.7 hPa | 0 mm | - | - | - |
| 1787484057 | 23.89° C | 51% | 1018.7 hPa | 0 mm | - | - | - |
| 1787483756 | 24.44° C | 51% | 1018.8 hPa | 0 mm | - | - | - |
| 1787483456 | 23.89° C | 52% | 1018.8 hPa | 0 mm | - | - | - |
| 1787483156 | 23.89° C | 52% | 1018.9 hPa | 0 mm | - | - | - |
| 1787482856 | 23.33° C | 52% | 1018.9 hPa | 0 mm | - | - | - |
| 1787482555 | 23.33° C | 54% | 1018.9 hPa | 0 mm | - | - | - |
| 1787482255 | 23.33° C | 54% | 1018.9 hPa | 0 mm | - | - | - |
| 1787481955 | 22.78° C | 55% | 1018.9 hPa | 0 mm | - | - | - |
| 1787481655 | 22.78° C | 53% | 1019 hPa | 0 mm | - | - | - |
| 1787481354 | 22.78° C | 56% | 1019 hPa | 0 mm | - | - | - |
| 1787481054 | 22.22° C | 54% | 1019.1 hPa | 0 mm | - | - | - |
| 1787480754 | 22.78° C | 56% | 1019.1 hPa | 0 mm | - | - | - |
| 1787480454 | 22.22° C | 56% | 1019.1 hPa | 0 mm | - | - | - |
| 1787480153 | 22.22° C | 57% | 1019.1 hPa | 0 mm | - | - | - |
| 1787479853 | 21.67° C | 57% | 1019.3 hPa | 0 mm | - | - | - |
* Rain latest hour (hover to see other rain measurements)
** Current wind speed in m/s (hover to see current wind gust speed)